This is the latest recevied weather packets stored in our database for station/object KC3ULW-13. If no packets are shown the sender has not sent any weather packets the latest 10 day(s).
| Time | Temp. | Humidity | Pressure | Rain* | Wind** | Luminosity | Snow |
|---|---|---|---|---|---|---|---|
| 1777385022 | 13.33° C | 83% | 1016.4 hPa | 0 mm | - | 46 W/m² | - |
| 1777384719 | 13.33° C | 83% | 1016.5 hPa | 0 mm | - | 78 W/m² | - |
| 1777384418 | 13.33° C | 83% | 1016.5 hPa | 0 mm | - | 59 W/m² | - |
| 1777384114 | 13.33° C | 84% | 1016.4 hPa | 0 mm | - | 75 W/m² | - |
| 1777383811 | 12.78° C | 84% | 1016.3 hPa | 0 mm | - | 81 W/m² | - |
| 1777383507 | 12.78° C | 84% | 1016.5 hPa | 0 mm | - | 84 W/m² | - |
| 1777383203 | 12.78° C | 84% | 1016.7 hPa | 0 mm | - | 80 W/m² | - |
| 1777382900 | 12.78° C | 85% | 1016.5 hPa | 0 mm | - | 61 W/m² | - |
| 1777382596 | 12.78° C | 86% | 1016.8 hPa | 0 mm | - | 52 W/m² | - |
| 1777382292 | 12.22° C | 87% | 1016.5 hPa | 0 mm | - | 55 W/m² | - |
| 1777381988 | 12.22° C | 88% | 1016.5 hPa | 0 mm | - | 60 W/m² | - |
| 1777381683 | 12.22° C | 89% | 1016.5 hPa | 0 mm | - | 69 W/m² | - |
| 1777381379 | 12.22° C | 89% | 1016.6 hPa | 0 mm | - | 72 W/m² | - |
| 1777381076 | 11.67° C | 90% | 1016.7 hPa | 0 mm | - | 67 W/m² | - |
| 1777380772 | 11.67° C | 90% | 1016.6 hPa | 0 mm | - | 62 W/m² | - |
| 1777380469 | 11.67° C | 90% | 1016.6 hPa | 0 mm | - | 62 W/m² | - |
| 1777380166 | 11.67° C | 90% | 1016.5 hPa | 0 mm | - | 63 W/m² | - |
| 1777379862 | 11.67° C | 90% | 1016.6 hPa | 0 mm | - | 61 W/m² | - |
| 1777379557 | 11.67° C | 90% | 1016.5 hPa | 0 mm | - | 69 W/m² | - |
| 1777379253 | 11.67° C | 90% | 1016.4 hPa | 0 mm | - | 71 W/m² | - |
| 1777378948 | 11.67° C | 90% | 1016.6 hPa | 0 mm | - | 64 W/m² | - |
| 1777378644 | 11.67° C | 90% | 1016.6 hPa | 0 mm | - | 77 W/m² | - |
| 1777378340 | 11.11° C | 90% | 1016.5 hPa | 0 mm | - | 72 W/m² | - |
| 1777378040 | 11.67° C | 90% | 1016.7 hPa | 0 mm | - | 76 W/m² | - |
| 1777377734 | 11.11° C | 90% | 1016.5 hPa | 0 mm | - | 82 W/m² | - |
* Rain latest hour (hover to see other rain measurements)
** Current wind speed in m/s (hover to see current wind gust speed)